Date_and_time,latitude,longitude,wind_speed,RelWindDirFrom,WindDirFrom,air_pressure,air_temperature,relative_humidity,Temp,platform_speed_wrt_ground,air_pressure_at_mean_sea_level,platform_orientation
2019-09-22 23:50,53.204555,-98.6200016666667,15.0,19.1,133,978.61,16.6,71,16.46,7.6,1004.52,83.8
2019-09-23 00:00,53.205125,-98.6196883333333,10.1,11.9,163,978.80,16.5,73,16.46,0.2,1004.74,86.4
2019-09-23 00:10,53.2043816666667,-98.6170516666667,9.9,13.7,159,978.84,16.4,71,16.31,0.6,1004.80,86.4
2019-09-23 00:20,53.2042083333333,-98.6161733333333,9.1,11.5,165,978.83,16.2,71,16.31,0.2,1004.81,86.4
2019-09-23 00:30,53.2042533333333,-98.6160683333333,8.3,9.9,169,978.87,16.1,75,16.30,0.0,1004.86,86.4
2019-09-23 00:40,53.20428,-98.6161516666667,9.6,11.6,168,978.79,16.0,75,16.32,0.0,1004.79,86.4
2019-09-23 00:50,53.2042883333333,-98.6162016666667,10.7,12.4,166,978.70,15.9,76,16.31,0.0,1004.73,86.4
2019-09-23 01:00,53.2044183333333,-98.6162566666667,11.1,13.0,160,978.63,15.8,77,16.28,0.0,1004.67,90.6
2019-09-23 01:10,53.20444,-98.61621,11.5,14.4,159,978.54,15.8,77,16.24,0.0,1004.58,90.6
2019-09-23 01:20,53.2044333333333,-98.6162533333333,12.5,14.9,157,978.51,15.7,79,16.21,0.0,1004.54,90.6
2019-09-23 01:30,53.2044483333333,-98.6162033333333,13.2,15.0,161,978.47,15.7,82,16.19,0.0,1004.50,90.6
2019-09-23 01:40,53.2044516666667,-98.6162633333333,13.2,14.6,164,978.46,15.7,83,16.17,0.0,1004.50,90.6
2019-09-23 01:50,53.20446,-98.6161866666667,12.7,14.4,164,978.54,15.7,84,16.17,0.0,1004.59,90.6
2019-09-23 02:00,53.2044416666667,-98.6162766666667,12.8,14.7,165,978.59,15.7,84,16.14,0.0,1004.64,91.2
2019-09-23 02:10,53.2044316666667,-98.6162866666667,12.1,13.4,163,978.62,15.7,84,16.11,0.0,1004.68,91.2
2019-09-23 02:20,53.2044283333333,-98.6163033333333,11.7,12.8,165,978.58,15.7,84,16.09,0.0,1004.65,91.2
2019-09-23 02:30,53.2044433333333,-98.6162033333333,11.5,13.2,166,978.59,15.7,84,16.07,0.0,1004.66,91.2
2019-09-23 02:40,53.2044433333333,-98.6161483333333,11.0,12.3,168,978.61,15.7,84,16.05,0.0,1004.68,91.2
2019-09-23 02:50,53.20445,-98.6161883333333,10.4,11.8,172,978.67,15.8,84,16.05,0.0,1004.74,91.2
2019-09-23 03:00,53.2044333333333,-98.6162483333333,10.0,11.7,173,978.67,15.8,83,16.04,0.0,1004.74,108.5
2019-09-23 03:10,53.20444,-98.61623,9.6,10.8,173,978.71,15.8,84,16.01,0.0,1004.79,108.5
2019-09-23 03:20,53.2044416666667,-98.6162133333333,9.4,10.7,173,978.76,15.8,85,16.00,0.0,1004.84,108.5
2019-09-23 03:30,53.204435,-98.616175,9.1,10.0,174,978.80,15.7,86,15.98,0.0,1004.89,108.5
2019-09-23 03:40,53.20444,-98.616185,8.4,9.6,175,978.88,15.7,88,15.99,0.0,1004.98,108.5
2019-09-23 03:50,53.2044283333333,-98.6161183333333,8.9,10.1,180,978.91,15.6,87,16.00,0.0,1005.01,108.5
2019-09-23 04:00,53.2044466666667,-98.616035,9.5,11.2,187,978.89,15.7,85,15.99,0.0,1004.98,78.1
2019-09-23 04:10,53.204445,-98.6160266666667,10.6,12.5,191,978.81,16.0,76,15.98,0.0,1004.89,78.1
2019-09-23 04:20,53.20445,-98.6160283333333,10.8,12.5,194,978.80,16.1,73,15.98,0.0,1004.87,78.1
2019-09-23 04:30,53.2044516666667,-98.6160233333333,10.7,12.0,195,978.80,16.0,73,15.99,0.0,1004.88,78.1
2019-09-23 04:40,53.2044533333333,-98.6160666666667,10.5,12.1,195,978.76,15.9,73,15.99,0.0,1004.83,78.1
2019-09-23 04:50,53.204455,-98.615985,12.3,14.7,195,978.64,15.9,72,15.98,0.0,1004.71,78.1
2019-09-23 05:00,53.2044633333333,-98.61594,13.8,16.1,198,978.50,15.9,70,15.99,0.0,1004.57,83.6
2019-09-23 05:10,53.2044616666667,-98.6158816666667,14.0,16.6,194,978.48,15.8,71,15.99,0.0,1004.55,83.6
2019-09-23 05:20,53.2044766666667,-98.615885,14.0,17.3,190,978.34,15.7,73,15.99,0.0,1004.42,83.6
2019-09-23 05:30,53.2044733333333,-98.6158566666667,16.9,19.9,190,978.02,15.7,69,15.98,0.0,1004.09,83.6
2019-09-23 05:40,53.2044683333333,-98.6158816666667,16.3,18.7,186,977.96,15.7,71,15.95,0.0,1004.03,83.6
2019-09-23 05:50,53.204485,-98.61594,16.0,18.9,186,977.98,15.6,72,15.92,0.0,1004.05,83.6
2019-09-23 06:00,53.204475,-98.6159483333333,15.7,18.3,186,977.96,15.5,74,15.90,0.0,1004.02,77.2
2019-09-23 06:10,53.2044833333333,-98.61601,15.3,17.3,189,977.90,15.4,75,15.90,0.0,1003.96,77.2
2019-09-23 06:20,53.2044866666667,-98.6160483333333,14.6,17.1,189,977.86,15.4,76,15.89,0.0,1003.92,77.2
2019-09-23 06:30,53.2044933333333,-98.6160533333333,14.8,17.4,188,977.82,15.4,76,15.88,0.0,1003.89,77.2
2019-09-23 06:40,53.2045016666667,-98.61606,14.6,16.9,188,977.80,15.3,77,15.87,0.0,1003.87,77.2
2019-09-23 06:50,53.20449,-98.616045,14.0,15.9,188,977.82,15.3,79,15.87,0.0,1003.89,77.2
2019-09-23 07:00,53.2044766666667,-98.6159716666667,14.1,15.9,184,977.81,15.2,79,15.86,0.0,1003.89,53.5
2019-09-23 07:10,53.20447,-98.6158516666667,13.3,15.1,187,977.85,15.1,81,15.86,0.0,1003.94,53.5
2019-09-23 07:20,53.20447,-98.615925,12.8,14.8,189,977.85,15.0,80,15.85,0.0,1003.94,53.5
2019-09-23 07:30,53.20447,-98.6160833333333,12.2,13.7,191,977.82,15.0,80,15.85,0.0,1003.92,53.5
2019-09-23 07:40,53.204485,-98.61596,12.0,13.7,195,977.83,14.9,80,15.85,0.0,1003.93,53.5
2019-09-23 07:50,53.2044883333333,-98.6159633333333,12.0,13.9,194,977.78,14.8,80,15.85,0.0,1003.90,53.5
2019-09-23 08:00,53.2044566666667,-98.6158766666667,11.6,12.9,200,977.81,14.7,81,15.85,0.0,1003.93,98.8
2019-09-23 08:10,53.20447,-98.6157733333333,11.1,12.6,205,977.83,14.7,81,15.85,0.0,1003.96,98.8
2019-09-23 08:20,53.20448,-98.6158833333333,10.1,11.6,204,977.80,14.7,83,15.85,0.0,1003.92,98.8
2019-09-23 08:30,53.20445,-98.615895,10.1,12.3,202,977.74,14.7,82,15.84,0.0,1003.87,98.8
2019-09-23 08:40,53.2044633333333,-98.6159283333333,9.4,10.9,200,977.71,14.7,84,15.84,0.0,1003.83,98.8
2019-09-23 08:50,53.2044483333333,-98.6158733333333,9.7,11.0,200,977.67,14.7,83,15.85,0.0,1003.80,98.8
2019-09-23 09:00,53.2044583333333,-98.6158633333333,9.1,10.2,201,977.70,14.8,84,15.83,0.0,1003.83,101.0
2019-09-23 09:10,53.2044533333333,-98.6158416666667,9.0,10.4,205,977.75,14.8,84,15.82,0.0,1003.88,101.0
2019-09-23 09:20,53.2044616666667,-98.61589,8.8,10.1,200,977.73,14.8,83,15.81,0.0,1003.86,101.0
2019-09-23 09:30,53.204445,-98.6157983333333,9.5,11.5,203,977.72,14.9,82,15.80,0.0,1003.85,101.0
2019-09-23 09:40,53.2044466666667,-98.6158083333333,10.3,11.5,208,977.65,14.8,81,15.79,0.0,1003.79,101.0
2019-09-23 09:50,53.2044316666667,-98.6157716666667,10.1,11.4,209,977.61,14.7,81,15.79,0.0,1003.76,101.0
2019-09-23 10:00,53.2044716666667,-98.6158733333333,9.4,11.1,210,977.64,14.7,81,15.78,0.0,1003.79,95.7
2019-09-23 10:10,53.2044233333333,-98.615735,9.4,10.7,212,977.64,14.6,82,15.78,0.0,1003.80,95.7
2019-09-23 10:20,53.2044333333333,-98.6157316666667,9.5,10.9,211,977.59,14.5,83,15.78,0.0,1003.75,95.7
2019-09-23 10:30,53.2044233333333,-98.6157166666667,10.0,11.5,209,977.56,14.5,83,15.78,0.0,1003.71,95.7
2019-09-23 10:40,53.2044766666667,-98.6158616666667,10.3,11.9,208,977.49,14.5,83,15.77,0.0,1003.65,95.7
2019-09-23 10:50,53.2044283333333,-98.615745,10.3,12.6,207,977.44,14.4,82,15.76,0.0,1003.60,95.7
2019-09-23 11:00,53.2044116666667,-98.6156816666667,10.5,12.0,212,977.46,14.3,82,15.77,0.0,1003.62,111.8
2019-09-23 11:10,53.20442,-98.615645,10.6,12.0,217,977.47,14.4,83,15.76,0.0,1003.63,111.8
2019-09-23 11:20,53.204365,-98.615555,11.5,12.8,222,977.47,14.4,82,15.76,0.0,1003.62,111.8
2019-09-23 11:30,53.20441,-98.6156166666667,11.4,12.4,222,977.38,14.2,83,15.76,0.0,1003.54,111.8
2019-09-23 11:40,53.2043666666667,-98.6155733333333,10.7,12.1,223,977.44,14.1,86,15.77,0.0,1003.61,111.8
2019-09-23 11:50,53.203965,-98.6157583333333,10.6,12.2,231,977.50,14.0,87,15.80,0.1,1003.68,111.8
2019-09-23 12:00,53.20019,-98.611095,9.5,13.2,214,977.56,14.0,90,15.79,1.7,1003.75,146.3
2019-09-23 12:10,53.1985583333333,-98.599065,7.9,9.0,204,977.70,14.1,92,15.77,2.7,1003.89,146.3
2019-09-23 12:20,53.196945,-98.586925,7.8,8.9,205,977.73,14.2,92,15.76,2.7,1003.92,146.3
2019-09-23 12:30,53.1939166666667,-98.5755483333333,8.7,9.9,201,977.72,14.1,92,15.76,2.7,1003.91,146.3
2019-09-23 12:40,53.1812116666667,-98.538885,11.9,15.5,163,977.54,14.1,90,15.75,9.1,1003.73,146.3
2019-09-23 12:50,53.165235,-98.495345,13.1,15.2,158,977.51,14.3,87,15.72,11.0,1003.69,146.3
2019-09-23 13:00,53.1513,-98.4498133333333,12.7,14.7,153,977.56,14.3,87,15.67,11.0,1003.75,118.0
2019-09-23 13:10,53.13746,-98.404255,12.8,15.3,151,977.55,14.5,87,15.62,11.0,1003.72,118.0
2019-09-23 13:20,53.123295,-98.3591983333333,12.4,14.8,147,977.53,14.8,88,15.59,11.0,1003.70,118.0
2019-09-23 13:30,53.109635,-98.3137116666667,14.4,16.9,151,977.51,15.2,88,15.59,11.0,1003.66,118.0
2019-09-23 13:40,53.095645,-98.268525,15.4,17.4,154,977.51,15.4,86,15.66,11.0,1003.66,118.0
2019-09-23 13:50,53.08855,-98.2436666666667,12.3,16.7,169,977.63,15.6,89,15.77,5.9,1003.78,118.0
2019-09-23 14:00,53.0844483333333,-98.2324866666667,11.6,13.1,180,977.65,15.6,89,15.87,2.8,1003.79,117.4
2019-09-23 14:10,53.08061,-98.220635,12.1,13.4,177,977.56,15.5,88,15.91,2.9,1003.70,117.4
2019-09-23 14:20,53.0781083333333,-98.20863,11.8,13.3,181,977.55,15.5,88,15.94,2.7,1003.68,117.4
2019-09-23 14:30,53.0746516666667,-98.1983416666667,11.2,13.2,185,977.58,15.6,88,15.96,2.6,1003.72,117.4
2019-09-23 14:40,53.074795,-98.2007216666667,10.7,14.1,205,977.52,15.5,88,15.97,0.5,1003.65,117.4
2019-09-23 14:50,53.0747816666667,-98.2005916666667,10.4,11.8,215,977.43,15.4,89,15.96,0.0,1003.57,117.4
2019-09-23 15:00,53.0747816666667,-98.2005816666667,11.1,12.6,214,977.39,15.4,88,15.96,0.0,1003.51,116.8
2019-09-23 15:10,53.07432,-98.20019,11.3,13.6,215,977.41,15.4,89,15.97,0.2,1003.52,116.8
2019-09-23 15:20,53.04611,-98.2084516666667,22.6,24.4,211,976.58,15.3,89,15.97,10.3,1002.65,116.8
2019-09-23 15:30,53.0164966666667,-98.216765,22.8,24.2,207,976.52,15.2,89,16.00,10.8,1002.58,116.8
2019-09-23 15:40,52.9867616666667,-98.22272,22.6,23.9,208,976.62,15.1,87,16.03,10.8,1002.68,116.8
2019-09-23 15:50,52.95712,-98.2298233333333,22.0,23.7,210,976.63,15.2,85,16.06,10.8,1002.69,116.8
2019-09-23 16:00,52.9274333333333,-98.23616,21.6,22.9,208,976.64,15.4,83,16.10,10.8,1002.69,150.1
2019-09-23 16:10,52.9006183333333,-98.2421416666667,20.2,23.3,208,976.74,15.4,83,16.15,9.7,1002.79,150.1
2019-09-23 16:20,52.8938883333333,-98.2435266666667,12.6,14.9,201,977.18,15.4,82,16.22,2.4,1003.24,150.1
2019-09-23 16:30,52.887705,-98.245555,11.9,12.8,195,977.10,15.5,81,16.27,2.3,1003.16,150.1
2019-09-23 16:40,52.8817683333333,-98.2491283333333,11.8,13.1,191,977.04,15.6,82,16.29,2.3,1003.10,150.1
2019-09-23 16:50,52.86707,-98.2500333333333,15.7,20.7,189,976.65,15.7,82,16.32,5.3,1002.70,150.1
2019-09-23 17:00,52.8667966666667,-98.2502983333333,11.9,14.9,189,976.94,15.7,80,16.35,0.1,1002.99,182.8
2019-09-23 17:10,52.8668416666667,-98.25035,13.1,14.9,190,976.81,15.8,81,16.37,0.0,1002.86,182.8
2019-09-23 17:20,52.8668366666667,-98.2504,12.2,14.5,187,976.86,15.8,85,16.37,0.0,1002.92,182.8
2019-09-23 17:30,52.86586,-98.2514933333333,14.1,17.7,190,976.75,15.9,83,16.40,0.4,1002.80,182.8
2019-09-23 17:40,52.8583516666667,-98.2993283333333,17.6,20.0,206,976.70,16.0,83,16.42,10.7,1002.74,182.8
2019-09-23 17:50,52.8505116666667,-98.3475666666667,16.3,18.6,204,976.58,16.2,83,16.44,10.9,1002.60,182.8
2019-09-23 18:00,52.84159,-98.395255,15.6,17.9,203,976.38,16.5,82,16.47,10.9,1002.38,206.8
2019-09-23 18:10,52.832955,-98.4410866666667,14.6,16.6,199,976.31,16.7,84,16.50,10.4,1002.30,206.8
2019-09-23 18:20,52.83116,-98.4543933333333,12.0,13.9,168,976.37,16.8,83,16.52,3.0,1002.35,206.8
2019-09-23 18:30,52.830525,-98.464535,11.2,12.5,161,976.17,17.0,83,16.53,2.2,1002.14,206.8
2019-09-23 18:40,52.8281683333333,-98.473875,12.1,13.5,164,976.04,17.1,81,16.52,2.2,1002.00,206.8
2019-09-23 18:50,52.8226566666667,-98.4908816666667,14.5,17.7,168,975.86,17.4,77,16.53,4.2,1001.80,206.8
2019-09-23 19:00,52.821115,-98.495205,13.7,16.5,162,975.34,17.7,75,16.57,1.1,1001.24,235.9
2019-09-23 19:10,52.8211116666667,-98.49526,15.1,16.6,160,975.00,17.9,73,16.56,0.0,1000.88,235.9
2019-09-23 19:20,52.8173516666667,-98.499235,15.8,21.2,164,974.81,17.7,75,16.58,1.6,1000.69,235.9
2019-09-23 19:30,52.7942833333333,-98.5311116666667,19.6,21.9,185,974.49,17.7,77,16.61,10.8,1000.36,235.9
2019-09-23 19:40,52.77056,-98.5615533333333,18.1,20.5,186,974.41,18.1,76,16.59,10.8,1000.25,235.9
2019-09-23 19:50,52.7459233333333,-98.5897233333333,20.1,23.6,201,974.12,19.8,59,16.57,10.8,999.87,235.9
2019-09-23 20:00,52.7214116666667,-98.6177683333333,24.2,27.8,211,973.54,21.5,49,16.52,10.7,999.19,237.0
2019-09-23 20:10,52.6971766666667,-98.64583,25.8,29.2,215,973.12,22.4,45,16.42,10.7,998.71,237.0
2019-09-23 20:20,52.681065,-98.6620216666667,23.4,29.6,213,973.13,23.3,39,16.33,6.8,998.67,237.0
2019-09-23 20:30,52.6756766666667,-98.6694433333333,18.1,21.3,205,973.45,23.6,40,16.25,2.5,998.99,237.0
2019-09-23 20:40,52.670455,-98.6756533333333,19.4,23.1,214,973.07,24.0,37,16.20,2.3,998.56,237.0
2019-09-23 20:50,52.66478,-98.6800466666667,19.3,23.4,224,973.12,24.2,37,16.18,2.3,998.59,237.0
2019-09-23 21:00,52.6535883333333,-98.6909133333333,22.3,30.0,207,972.55,24.6,35,16.21,4.7,997.97,223.7
2019-09-23 21:10,52.6538966666667,-98.69102,18.7,23.5,220,972.93,25.2,33,16.21,0.1,998.35,223.7
2019-09-23 21:20,52.6537683333333,-98.69101,17.3,24.4,213,973.00,25.2,35,16.21,0.0,998.42,223.7
2019-09-23 21:30,52.6432816666667,-98.7043033333333,21.1,27.0,211,972.55,25.3,34,16.23,4.8,997.94,223.7
2019-09-23 21:40,52.6427783333333,-98.7050566666667,14.9,21.3,210,972.93,25.8,33,16.29,0.2,998.24,223.7
2019-09-23 21:50,52.6427616666667,-98.70501,14.5,19.3,206,972.88,25.7,34,16.32,0.0,998.11,223.7
2019-09-23 22:00,52.64277,-98.7049816666667,14.4,19.8,205,972.74,25.9,34,16.31,0.0,997.92,215.5
2019-09-23 22:10,52.6427766666667,-98.705025,13.7,18.4,199,972.65,25.9,34,16.31,0.0,997.80,215.5
2019-09-23 22:20,52.642805,-98.705105,14.3,18.8,203,972.49,25.9,34,16.32,0.0,997.62,215.5
2019-09-23 22:30,52.642805,-98.7050983333333,14.7,19.8,197,972.34,25.9,34,16.34,0.0,997.45,215.5
2019-09-23 22:40,52.6427816666667,-98.705015,14.9,21.2,209,972.25,26.1,34,16.36,0.0,997.33,215.5
2019-09-23 22:50,52.6458283333333,-98.701445,11.8,17.3,205,972.37,26.2,34,16.36,1.3,997.44,215.5
2019-09-23 23:00,52.6503583333333,-98.6593666666667,13.7,21.3,156,972.44,26.1,37,16.24,9.3,997.48,199.6
2019-09-23 23:10,52.6488033333333,-98.6090333333333,18.1,21.8,146,972.31,24.2,45,16.15,11.0,997.44,199.6
2019-09-23 23:20,52.6464283333333,-98.55841,20.0,22.8,153,972.24,22.7,50,16.18,11.1,997.42,199.6
2019-09-23 23:30,52.6444366666667,-98.5076833333333,19.1,20.9,151,972.25,22.0,53,16.27,11.1,997.44,199.6
2019-09-23 23:40,52.64295,-98.4569866666667,19.1,21.4,151,972.16,21.6,55,16.35,11.1,997.37,199.6
2019-09-23 23:50,52.640275,-98.4065116666667,19.1,21.0,146,972.08,20.9,61,16.42,11.1,997.31,199.6
